Regional Weather Roundup
Issued by NWS

Home | Current Version | Previous Version | Graphics & Text | Print | Product List | Glossary On
Versions: 1 2 3 4 5 6 7 8 9 10 11 12 13 14 15 16 17 18 19 20 21 22 23 24 25 26 27 28 29 30 31 32 33 34 35 36 37 38 39 40 41 42 43 44 45 46 47 48 49 50
000
ASUS43 KLOT 240108
RWRIL

ILLINOIS REGIONAL WEATHER ROUNDUP
NATIONAL WEATHER SERVICE CHICAGO/ROMEOVILLE IL
700 PM CST THU FEB 23 2017

NOTE: "FAIR" INDICATES FEW OR NO CLOUDS BELOW 12,000 FEET WITH NO
SIGNIFICANT WEATHER AND/OR OBSTRUCTIONS TO VISIBILITY.

* THESE STATIONS ARE NOT UNDER NWS QUALITY CONTROL. THEY ALSO MAY NOT
  REPORT WEATHER SUCH AS PRECIPITATION OR FOG.

ILZ001-002-007-009-015-016-024-240200-
NORTHWEST ILLINOIS

CITY           SKY/WX    TMP DP  RH WIND       PRES   REMARKS
MOLINE         CLOUDY    46  40  79 E22       29.66R
SAVANNA*       CLOUDY    39  37  89 NE20G28   29.72S WCI  30
$$

ILZ003-004-008-010-011-017-018-240200-
NORTH CENTRAL ILLINOIS

CITY           SKY/WX    TMP DP  RH WIND       PRES   REMARKS
ROCKFORD       CLOUDY    38  33  82 NE17G28   29.77R WCI  28
FREEPORT*      DRIZZLE   37  34  90 E16G26    29.78R WCI  27
ROCHELLE*      LGT RAIN  37  36  94 E14       29.74R WCI  29
DE KALB*       DRIZZLE   37  35  92 NE17G23   29.75F WCI  27
PERU*          DRIZZLE   39  37  91 E22G28    29.70S WCI  28
$$

ILZ005-006-012>014-019>023-240200-
NORTHEAST ILLINOIS

CITY           SKY/WX    TMP DP  RH WIND       PRES   REMARKS
CHICAGO-OHARE  CLOUDY    38  34  85 NE16      29.76F WCI  29
CHICAGO-MIDWAY DRIZZLE   39  34  82 NE16G23   29.76F WCI  30
AURORA         LGT RAIN  38  34  85 E21G26    29.74R WCI  28
LANSING*       RAIN      37  37 100 NE13      29.76S WCI  29
JOLIET*        LGT RAIN  40  38  95 NE15      29.73F
WAUKEGAN       CLOUDY    36  32  85 NE10G28   29.78F WCI  28
DUPAGE AIRPORT CLOUDY    37  32  82 NE16G23   29.74F WCI  28
KANKAKEE*      DRIZZLE   40  38  93 NE8G16    29.74F
WHEELING       CLOUDY    37  33  85 NE13      29.80R WCI  29
MORRIS*        RAIN      39  37  93 NE8       29.73S WCI  33
ROMEOVILLE*    RAIN      37  37 100 E12       29.75R WCI  30
NORTHERLY ISL    N/A     37  35  92 N13         N/A  WCI  29
$$

LMZ740>746-240200-
SOUTHERN LAKE MICHIGAN

STATION/POSITION SKY/WX   TEMP    WIND        PRES    VSBY  WAVE
                          AIR SEA DIR/SP/G                  HT/PER
                          (F)     (DEG/KT/KT) (MB)    (MI)  (FT/S)
HARRISON CRIB              38      30/ 15/ 16   N/A
BURNHAM HARBOR             37      40/  9/ 16   N/A
CALUMET HARBOR             37      20/ 13/ 17 1007.5F
BURNS HARBOR               37      60/ 16/ 18 1007.8F
MICHIGAN CITY              36      40/ 12/ 12   N/A
$$

ILZ025>027-034>036-040-047-049-050-058-095>099-240200-
WEST-CENTRAL ILLINOIS

CITY           SKY/WX    TMP DP  RH WIND       PRES   REMARKS
QUINCY         MOCLDY    55  50  83 SE20G25   29.50F
GALESBURG*     CLOUDY    47  45  91 E14       29.62R
MACOMB*        MOCLDY    50  48  94 E10       29.61R
JACKSONVILLE*  MOCLDY    56  53  89 E8        29.58F
PITTSFIELD*    PTCLDY    56  53  91 E9        29.56F
$$

ILZ028>032-037-038-041>044-048-051>054-059>061-240200-
CENTRAL ILLINOIS

CITY           SKY/WX    TMP DP  RH WIND       PRES   REMARKS
PONTIAC        CLOUDY    43  42  97 E17       29.70S
BLOOMINGTON    CLOUDY    45  42  89 E18       29.67F
DECATUR        MOCLDY    56  51  84 E5        29.64F
PEORIA         CLOUDY    47  43  86 E16G22    29.63F
LACON*         CLOUDY    43  41  95 E18G25    29.65F
LINCOLN*       MOCLDY    53  49  83 E13G21    29.64S
SPRINGFIELD    CLOUDY    58  54  86 E6        29.62R
TAYLORVILLE    CLOUDY    61  53  73 E8        29.61S
$$

ILZ033-039-045-046-055>057-062-063-240200-
EAST-CENTRAL ILLINOIS

CITY           SKY/WX    TMP DP  RH WIND       PRES   REMARKS
CHAMPAIGN      CLOUDY    58  52  80 E7        29.66S
RANTOUL*       CLOUDY    52  46  82 NE13      29.68S
MATTOON        MOCLDY    61  54  77 SE7       29.64F
PARIS*         CLOUDY    61  55  79 SE7       29.67F
$$

ILZ079-100>102-240200-
SOUTHWEST ILLINOIS

CITY           SKY/WX    TMP DP  RH WIND       PRES   REMARKS
ALTON          MOCLDY    63  54  72 SE10      29.58S
BELLEVILLE     MOCLDY    66  57  72 E9        29.55F
CAHOKIA*       CLOUDY    67  54  63 S10G17    29.55F
SPARTA*        CLOUDY    66  55  66 SE8       29.60S
$$

ILZ064>066-069>071-074>076-080>082-084>086-088>090-092>094-240200-
SOUTH-CENTRAL ILLINOIS

CITY           SKY/WX    TMP DP  RH WIND       PRES   REMARKS
CARBONDALE     MOCLDY    67  55  65 S15       29.60F
CAIRO*         CLEAR     66  55  68 SE10      29.63F
EFFINGHAM*     PTCLDY    62  55  79 E9        29.65F
MARION         CLOUDY    68  55  64 S9        29.63F
MT. VERNON     MOCLDY    64  53  67 S8        29.63F
CENTRALIA*     PTCLDY    65  55  70 SE12      29.59F
SALEM*         CLOUDY    66  53  62 SE7       29.61F
METROPOLIS*    CLEAR     67  56  67 CALM      29.66F
$$

ILZ067-068-072-073-078-083-087-091-240200-
SOUTHEAST ILLINOIS

CITY           SKY/WX    TMP DP  RH WIND       PRES   REMARKS
LAWRENCEVILLE  CLOUDY    60  54  80 SE9       29.68S
FLORA*         MOCLDY    63  55  76 SE10      29.64F
FAIRFIELD*     PTCLDY    62  54  73 SE7       29.64F
HARRISBURG*    PTCLDY    62  56  78 SE6       29.66S
ROBINSON*      CLOUDY    59  53  79 SE8       29.68F
CARMI*         PTCLDY    60  55  84 SE7       29.67S
$$

ABBREVIATIONS USED IN REMARKS
   TC - TEMPERATURE IN CELSIUS
  WCI - WIND CHILL INDEX
   HX - HEAT INDEX
  VSB - VISIBILITY
$$




USA.gov is the U.S. government's official web portal to all federal, state and local government web resources and services.